Wind_Speed
12 8 6 5 9 20 21 22 26 26 23 23 26 30 26 25 25 24 23 20 20 20 22 20 21 25 28 29 30 29 31 28
18 15 13 7 7 12 21 25 23 19 16 15 18 19 21 26 26 25 25 25 25 25 24 23 21 21 25 30 31 31 31 29
25 21 18 12 8 9 11 14 12 13 10 13 15 15 15 16 19 22 23 23 22 22 24 24 25 26 24 25 28 33 35 35
29 24 20 17 16 17 17 16 16 14 11 11 10 13 10 9 7 7 7 8 11 18 21 25 26 28 28 29 30 31 35 38
31 26 25 25 22 17 21 18 14 17 18 16 12 11 13 10 7 6 2 5 7 9 10 13 17 20 24 25 25 28 29 34
33 30 27 27 25 19 15 16 18 21 20 17 15 13 12 9 6 5 6 9 11 11 11 15 17 17 20 22 24 27 26 30
35 30 26 25 24 20 17 15 14 15 15 14 12 10 8 7 8 9 10 9 7 6 11 15 17 19 20 20 23 25 25 29
39 36 31 23 20 21 17 12 10 8 7 6 4 2 3 4 4 6 8 10 11 11 12 14 15 18 19 21 22 23 26 30
40 37 28 22 20 19 17 14 10 7 5 2 3 5 7 8 8 10 12 14 16 17 19 19 19 19 19 22 23 23 24 25
40 31 29 25 19 16 15 12 10 6 4 5 7 9 9 10 11 12 13 15 16 18 19 20 21 23 23 23 22 23 27 28
33 29 25 19 18 14 11 9 6 5 5 7 9 11 12 13 14 14 13 14 17 20 21 22 24 24 23 22 22 22 25 27
34 29 25 20 17 13 10 8 7 6 7 7 9 11 12 13 15 17 15 16 20 22 23 24 21 19 20 21 23 26 28 30
28 24 23 21 17 14 12 9 8 6 5 8 10 10 11 13 15 19 19 18 19 22 24 26 22 21 21 23 25 26 27 28
27 26 26 21 18 15 13 10 8 9 10 12 12 13 12 13 16 20 21 22 23 25 28 23 20 22 22 22 22 22 23 25
29 28 23 21 17 16 13 9 9 9 10 13 14 14 15 16 18 20 22 23 25 27 21 19 20 21 21 20 20 20 22 23
30 25 24 22 19 17 14 11 10 8 11 14 15 16 17 17 18 20 23 25 20 17 18 19 19 17 17 16 16 18 19 19
27 24 25 24 19 15 11 9 7 6 11 14 16 18 21 22 21 19 13 13 13 14 15 14 13 12 13 13 14 14 15 15
28 27 29 23 18 14 11 11 9 9 12 15 18 18 17 13 12 11 10 12 12 12 12 11 11 10 12 12 12 12 12 13
33 32 24 21 17 13 14 11 9 10 11 11 13 16 10 8 10 11 11 12 11 10 9 9 8 9 10 10 11 9 10 11
Wind_Direction
190 180 157 202 184 176 190 203 195 201 202 210 217 218 219 216 221 228 232 232 237 252 257 250 248 242 235 239 248 254 259 271
188 198 195 201 195 179 199 208 196 211 211 214 212 215 228 228 225 227 229 236 242 244 250 252 249 247 248 245 248 252 254 255
173 182 196 204 157 146 164 184 195 205 219 225 222 228 236 239 239 241 244 245 245 244 242 248 252 251 249 249 254 252 254 252
166 172 175 171 155 158 162 161 176 186 159 163 167 180 166 143 147 164 183 209 236 247 251 253 254 256 257 264 260 259 259 248
163 168 169 167 161 162 170 163 155 152 159 153 151 157 143 128 146 155 206 266 282 269 264 262 253 255 259 261 261 261 264 267
164 168 169 171 167 160 166 176 156 156 163 171 166 166 171 179 197 208 225 271 279 277 273 270 270 264 266 265 264 261 263 266
162 161 164 172 175 168 171 175 161 158 166 173 182 185 197 218 231 238 244 245 242 271 291 281 271 266 268 270 271 271 274 269
160 160 162 165 174 171 169 172 174 175 173 178 188 238 293 297 281 267 260 257 249 246 251 254 255 259 263 266 267 270 272 271
160 162 163 165 168 163 167 178 178 185 196 223 298 312 307 299 287 276 275 277 275 266 262 263 266 271 271 274 273 272 273 277
154 152 154 155 167 177 186 181 179 194 230 276 302 306 300 298 296 291 288 286 286 281 281 279 277 276 278 280 279 275 271 272
153 157 154 156 165 182 196 195 187 193 240 277 293 301 301 303 302 302 296 282 279 281 281 283 285 285 283 282 283 286 288 285
159 164 164 166 171 184 204 204 200 220 255 271 294 301 299 295 299 304 294 278 278 280 284 293 291 291 290 291 295 298 299 298
156 162 174 182 184 188 200 214 233 258 240 257 275 281 286 297 293 290 295 283 273 274 285 296 294 296 297 299 301 302 302 304
168 170 172 174 181 188 192 203 230 238 252 260 263 265 263 273 278 283 286 282 279 283 291 291 294 298 301 302 305 306 308 309
174 173 173 177 184 189 195 204 226 244 247 262 265 282 288 286 283 278 277 279 284 289 289 294 296 297 299 300 303 306 308 313
172 176 181 187 190 190 198 206 225 241 254 258 278 297 296 292 285 282 286 290 288 289 290 292 295 297 298 302 307 313 318 319
176 185 187 185 182 188 188 204 223 242 259 278 294 298 295 289 287 287 287 283 287 290 292 299 301 301 309 313 319 320 322 326
181 184 175 175 175 179 197 211 235 249 263 282 296 296 291 288 294 296 279 280 284 287 295 297 296 310 320 322 324 327 328 334
184 173 168 174 185 198 199 206 254 265 277 299 305 316 300 310 304 288 279 288 288 287 287 292 302 313 319 321 323 326 329 330
Height
1468 1472 1475 1477 1478 1481 1485 1488 1490 1495 1496 1500 1502 1504 1505 1507 1509 1511 1514 1516 1518 1519 1520 1521 1523 1525 1526 1526 1526 1527 1528 1529
1465 1471 1474 1477 1479 1480 1483 1486 1489 1492 1492 1495 1499 1501 1502 1504 1504 1506 1509 1511 1513 1515 1515 1517 1518 1519 1522 1522 1523 1523 1522 1523
1461 1466 1470 1476 1480 1481 1482 1484 1486 1488 1490 1493 1496 1498 1500 1502 1503 1503 1505 1507 1509 1510 1511 1512 1513 1514 1515 1517 1517 1517 1517 1518
1454 1461 1466 1472 1478 1480 1480 1480 1481 1484 1489 1491 1493 1495 1498 1500 1501 1501 1502 1503 1504 1506 1507 1508 1509 1509 1510 1510 1511 1511 1510 1511
1450 1456 1462 1468 1474 1477 1480 1481 1481 1484 1487 1489 1492 1494 1496 1497 1498 1499 1501 1501 1502 1502 1503 1503 1503 1504 1504 1505 1505 1504 1504 1502
1445 1452 1457 1464 1470 1474 1478 1481 1482 1484 1486 1488 1490 1492 1494 1495 1496 1497 1497 1498 1498 1498 1498 1498 1499 1499 1500 1501 1501 1501 1499 1497
1443 1449 1454 1462 1469 1473 1477 1480 1482 1484 1486 1488 1490 1491 1492 1493 1494 1494 1494 1494 1494 1494 1494 1494 1494 1494 1494 1494 1494 1493 1493 1492
1437 1443 1451 1460 1466 1471 1475 1478 1481 1483 1485 1487 1487 1488 1488 1489 1489 1489 1490 1490 1490 1489 1488 1487 1487 1487 1487 1488 1488 1487 1487 1486
1433 1440 1448 1456 1464 1470 1473 1477 1479 1481 1483 1484 1485 1485 1486 1486 1486 1486 1486 1485 1484 1483 1482 1481 1482 1482 1482 1482 1481 1481 1481 1481
1434 1441 1447 1455 1463 1468 1473 1476 1478 1480 1480 1481 1482 1482 1483 1483 1482 1482 1481 1481 1480 1479 1478 1479 1478 1477 1476 1475 1475 1474 1474 1474
1435 1443 1449 1456 1462 1466 1470 1473 1475 1477 1478 1478 1479 1479 1479 1479 1478 1478 1477 1477 1474 1475 1474 1472 1472 1470 1469 1468 1468 1467 1466 1464
1429 1440 1448 1454 1459 1464 1468 1470 1472 1473 1474 1474 1475 1475 1475 1475 1474 1474 1473 1472 1470 1469 1468 1467 1465 1464 1464 1461 1459 1458 1457 1455
1431 1439 1446 1451 1457 1462 1465 1467 1468 1469 1470 1472 1472 1472 1472 1472 1471 1469 1468 1469 1467 1466 1464 1461 1460 1459 1458 1456 1454 1452 1450 1447
1432 1439 1444 1450 1455 1459 1462 1464 1466 1467 1468 1469 1470 1468 1467 1467 1467 1466 1464 1464 1463 1461 1458 1456 1454 1453 1451 1450 1448 1446 1444 1440
1430 1436 1441 1447 1452 1456 1458 1461 1463 1464 1466 1466 1466 1465 1464 1463 1461 1461 1460 1458 1457 1455 1453 1451 1449 1448 1447 1445 1443 1442 1440 1435
1427 1433 1437 1443 1447 1450 1453 1455 1458 1461 1462 1461 1461 1461 1459 1458 1457 1456 1454 1453 1451 1450 1449 1448 1446 1445 1445 1443 1440 1438 1436 1432
1422 1429 1435 1439 1443 1446 1449 1453 1456 1458 1458 1458 1457 1456 1454 1453 1450 1449 1447 1446 1446 1447 1445 1444 1444 1442 1441 1439 1438 1435 1433 1430
1417 1422 1428 1434 1439 1443 1447 1450 1452 1453 1453 1453 1453 1451 1450 1448 1448 1449 1446 1446 1445 1444 1444 1442 1441 1441 1439 1437 1436 1434 1431 1428
1410 1415 1422 1429 1434 1439 1442 1446 1448 1449 1449 1448 1447 1447 1446 1446 1446 1445 1444 1444 1443 1441 1441 1440 1440 1438 1436 1434 1433 1432 1429 1427